GW3558 Weather Reports


Display with metric or nautical units.
time (UTC)temp
F
wind
direction
speed
MPH
gust
MPH
rain 1hr
in
rain 24hr
in
rain mn
in
humidity
%
barometer
mb
20260831231559 63 105 2.0 8.0 0.00 0.00 0.00 45 1019.1
20260831231017 63 113 1.0 8.0 0.00 0.00 0.00 46 1019.1
20260831230519 63 91 2.0 8.0 0.00 0.00 0.00 45 1019.2
20260831230114 64 107 3.0 10.0 0.00 0.00 0.00 44 1019.1
20260831225521 64 107 1.0 10.0 0.00 0.00 0.00 45 1019.1
20260831225019 64 103 2.0 8.0 0.00 0.00 0.00 45 1019.1
20260831224552 64 86 1.0 7.0 0.00 0.00 0.00 45 1019.2
20260831224017 63 98 2.0 8.0 0.00 0.00 0.00 46 1019.3
20260831223518 63 112 2.0 9.0 0.00 0.00 0.00 47 1019.4
20260831223111 64 102 4.0 9.0 0.00 0.00 0.00 47 1019.4
20260831222521 64 106 1.0 9.0 0.00 0.00 0.00 46 1019.5
20260831222019 64 79 2.0 8.0 0.00 0.00 0.00 46 1019.7
20260831221606 64 101 1.0 8.0 0.00 0.00 0.00 47 1019.7
20260831221021 64 102 3.0 8.0 0.00 0.00 0.00 47 1019.5
20260831220521 63 86 0.0 7.0 0.00 0.00 0.00 49 1019.4
20260831220115 63 106 1.0 7.0 0.00 0.00 0.00 49 1019.4
20260831215521 63 104 1.0 6.0 0.00 0.00 0.00 49 1019.4
20260831215020 62 97 1.0 6.0 0.00 0.00 0.00 51 1019.6
20260831214613 62 103 1.0 6.0 0.00 0.00 0.00 50 1019.6
20260831214019 62 109 2.0 9.0 0.00 0.00 0.00 50 1019.7
20260831213518 63 76 2.0 9.0 0.00 0.00 0.00 49 1020.0
20260831213108 64 96 1.0 7.0 0.00 0.00 0.00 49 1019.9
20260831212518 64 114 1.0 7.0 0.00 0.00 0.00 48 1020.0
20260831212022 63 91 0.0 6.0 0.00 0.00 0.00 49 1019.9
20260831211613 63 59 0.0 4.0 0.00 0.00 0.00 50 1020.0
20260831211019 63 103 0.0 7.0 0.00 0.00 0.00 51 1020.0
20260831210523 62 92 0.0 4.0 0.00 0.00 0.00 51 1020.1
20260831210110 62 69 0.0 6.0 0.00 0.00 0.00 49 1020.1
20260831205517 62 81 0.0 7.0 0.00 0.00 0.00 51 1020.2
20260831205021 62 82 0.0 7.0 0.00 0.00 0.00 50 1020.3
20260831204610 62 88 0.0 7.0 0.00 0.00 0.00 51 1020.4
20260831204018 62 98 0.0 10.0 0.00 0.00 0.00 52 1020.4
20260831203520 62 96 1.0 10.0 0.00 0.00 0.00 52 1020.4
20260831203115 62 70 0.0 7.0 0.00 0.00 0.00 52 1020.4
20260831202524 62 103 1.0 8.0 0.00 0.00 0.00 52 1020.4
20260831202024 62 103 0.0 7.0 0.00 0.00 0.00 53 1020.3
20260831201626 61 108 1.0 7.0 0.00 0.00 0.00 53 1020.4
20260831201024 61 107 2.0 7.0 0.00 0.00 0.00 54 1020.4
20260831200520 61 113 0.0 11.0 0.00 0.00 0.00 54 1020.5
20260831200125 61 109 1.0 11.0 0.00 0.00 0.00 53 1020.4
20260831195520 62 107 2.0 9.0 0.00 0.00 0.00 53 1020.5
20260831195018 62 102 1.0 9.0 0.00 0.00 0.00 55 1020.6
20260831194616 61 101 0.0 6.0 0.00 0.00 0.00 55 1020.5
20260831194025 61 90 0.0 7.0 0.00 0.00 0.00 54 1020.6
20260831193519 61 105 0.0 9.0 0.00 0.00 0.00 53 1020.5
20260831193110 61 94 2.0 12.0 0.00 0.00 0.00 54 1020.8
20260831192521 61 107 1.0 12.0 0.00 0.00 0.00 54 1020.9
20260831192024 61 101 1.0 7.0 0.00 0.00 0.00 55 1020.8
20260831191605 61 99 0.0 6.0 0.00 0.00 0.00 54 1020.9
20260831191020 60 94 1.0 7.0 0.00 0.00 0.00 56 1021.0
20260831190526 60 75 0.0 7.0 0.00 0.00 0.00 57 1020.9
20260831190116 60 98 0.0 9.0 0.00 0.00 0.00 55 1021.0
20260831185519 60 104 0.0 9.0 0.00 0.00 0.00 55 1021.0
20260831185019 60 103 1.0 8.0 0.00 0.00 0.00 56 1021.1
20260831184617 59 108 0.0 9.0 0.00 0.00 0.00 56 1021.1
20260831184024 59 76 0.0 9.0 0.00 0.00 0.00 55 1021.0
20260831183527 59 104 1.0 7.0 0.00 0.00 0.00 56 1020.9
20260831183115 59 96 1.0 10.0 0.00 0.00 0.00 56 1021.0
20260831182525 59 112 2.0 9.0 0.00 0.00 0.00 57 1021.0
20260831182020 59 80 0.0 10.0 0.00 0.00 0.00 55 1020.9
20260831181606 59 69 2.0 10.0 0.00 0.00 0.00 56 1021.1
20260831181025 60 103 0.0 3.0 0.00 0.00 0.00 57 1021.1
20260831180524 60 82 0.0 8.0 0.00 0.00 0.00 57 1021.3
20260831180130 59 113 1.0 6.0 0.00 0.00 0.00 56 1021.1
20260831175522 59 78 0.0 8.0 0.00 0.00 0.00 58 1021.1
20260831175023 59 94 0.0 8.0 0.00 0.00 0.00 58 1021.1
20260831174617 59 88 0.0 4.0 0.00 0.00 0.00 58 1021.0
20260831174021 59 107 0.0 6.0 0.00 0.00 0.00 59 1021.1
20260831173524 59 102 0.0 6.0 0.00 0.00 0.00 60 1021.1
20260831173108 58 93 0.0 3.0 0.00 0.00 0.00 61 1021.1
20260831172521 58 86 0.0 7.0 0.00 0.00 0.00 61 1021.2
20260831172022 57 90 0.0 7.0 0.00 0.00 0.00 62 1021.1
20260831171627 58 99 1.0 6.0 0.00 0.00 0.00 62 1021.1
20260831171021 58 90 0.0 4.0 0.00 0.00 0.00 61 1021.0
20260831170527 57 98 0.0 4.0 0.00 0.00 0.00 64 1020.9
20260831170124 57 93 0.0 6.0 0.00 0.00 0.00 63 1020.9
20260831165520 57 86 0.0 7.0 0.00 0.00 0.00 63 1020.9
20260831165020 57 108 0.0 7.0 0.00 0.00 0.00 61 1020.9
20260831164612 57 98 0.0 7.0 0.00 0.00 0.00 61 1021.0
20260831164023 57 98 0.0 7.0 0.00 0.00 0.00 62 1021.0
20260831163524 56 108 0.0 6.0 0.00 0.00 0.00 63 1020.9
20260831163118 56 102 0.0 6.0 0.00 0.00 0.00 62 1020.9
20260831162528 56 104 0.0 4.0 0.00 0.00 0.00 62 1020.9
20260831162024 56 100 0.0 4.0 0.00 0.00 0.00 61 1020.8
20260831161615 56 98 0.0 4.0 0.00 0.00 0.00 64 1020.8
20260831161026 56 105 0.0 6.0 0.00 0.00 0.00 63 1020.8
20260831160524 56 104 0.0 6.0 0.00 0.00 0.00 63 1020.8
20260831160125 56 96 0.0 0.0 0.00 0.00 0.00 62 1020.8
20260831155522 56 93 0.0 4.0 0.00 0.00 0.00 64 1020.9
20260831155025 56 102 0.0 4.0 0.00 0.00 0.00 64 1021.0
20260831154650 55 96 0.0 6.0 0.00 0.00 0.00 64 1020.9
20260831154025 55 97 0.0 6.0 0.00 0.00 0.00 64 1021.0
20260831153527 55 82 0.0 4.0 0.00 0.00 0.00 66 1021.0
20260831153129 54 99 0.0 3.0 0.00 0.00 0.00 68 1021.1
20260831152528 54 96 0.0 2.0 0.00 0.00 0.00 66 1021.0
20260831152024 54 96 0.0 1.0 0.00 0.00 0.00 66 1021.1
20260831151621 54 101 0.0 1.0 0.00 0.00 0.00 66 1021.0
20260831151028 54 74 0.0 0.0 0.00 0.00 0.00 66 1021.1
20260831150519 54 76 0.0 0.0 0.00 0.00 0.00 65 1020.9
20260831150127 54 69 0.0 0.0 0.00 0.00 0.00 66 1020.8
20260831145528 54 68 0.0 1.0 0.00 0.00 0.00 66 1020.8
20260831145026 53 68 0.0 1.0 0.00 0.00 0.00 67 1020.9
20260831144622 53 55 0.0 0.0 0.00 0.00 0.00 66 1020.9
20260831144024 53 55 0.0 0.0 0.00 0.00 0.00 66 1020.9
20260831143526 53 55 0.0 0.0 0.00 0.00 0.00 67 1020.7
20260831143128 53 54 0.0 0.0 0.00 0.00 0.00 69 1020.8
20260831142523 52 54 0.0 0.0 0.00 0.00 0.00 70 1020.8
20260831142023 52 51 0.0 0.0 0.00 0.00 0.00 71 1020.6
20260831141625 51 20 0.0 0.0 0.00 0.00 0.00 72 1020.5
20260831141025 50 19 0.0 0.0 0.00 0.00 0.00 74 1020.6
20260831140524 50 19 0.0 0.0 0.00 0.00 0.00 75 1020.6
20260831140124 49 19 0.0 0.0 0.00 0.00 0.00 76 1020.6
20260831135525 49 19 0.0 0.0 0.00 0.00 0.00 75 1020.4
20260831135024 49 19 0.0 0.0 0.00 0.00 0.00 75 1020.3
20260831134609 49 19 0.0 0.0 0.00 0.00 0.00 74 1020.3
20260831134021 49 19 0.0 0.0 0.00 0.00 0.00 74 1020.3
20260831133520 49 19 0.0 0.0 0.00 0.00 0.00 74 1020.4
20260831133105 49 19 0.0 0.0 0.00 0.00 0.00 75 1020.5
20260831132521 48 19 0.0 0.0 0.00 0.00 0.00 74 1020.4
20260831132030 48 19 0.0 0.0 0.00 0.00 0.00 75 1020.4
20260831131625 48 19 0.0 0.0 0.00 0.00 0.00 75 1020.4
20260831131024 48 19 0.0 0.0 0.00 0.00 0.00 77 1020.4
20260831130518 47 19 0.0 0.0 0.00 0.00 0.00 77 1020.4
20260831130127 48 19 0.0 0.0 0.00 0.00 0.00 78 1020.5
20260831125523 48 19 0.0 0.0 0.00 0.00 0.00 78 1020.5
20260831125025 48 19 0.0 0.0 0.00 0.00 0.00 77 1020.3
20260831124622 48 19 0.0 0.0 0.00 0.00 0.00 77 1020.4
20260831124018 48 19 0.0 0.0 0.00 0.00 0.00 76 1020.6
20260831123525 48 19 0.0 0.0 0.00 0.00 0.00 76 1020.6
20260831123117 48 19 0.0 0.0 0.00 0.00 0.00 77 1020.5
20260831122524 48 19 0.0 0.0 0.00 0.00 0.00 77 1020.4
20260831122025 48 19 0.0 0.0 0.00 0.00 0.00 76 1020.5
20260831121614 48 19 0.0 0.0 0.00 0.00 0.00 76 1020.5
20260831121024 48 19 0.0 0.0 0.00 0.00 0.00 76 1020.3
20260831120525 48 19 0.0 0.0 0.00 0.00 0.00 76 1020.3
20260831120133 48 19 0.0 0.0 0.00 0.00 0.00 76 1020.4
20260831115524 48 19 0.0 0.0 0.00 0.00 0.00 76 1020.3
20260831115025 48 19 0.0 0.0 0.00 0.00 0.00 76 1020.4
20260831114612 48 19 0.0 0.0 0.00 0.00 0.00 76 1020.4
20260831114021 48 19 0.0 0.0 0.00 0.00 0.00 76 1020.4
20260831113523 48 19 0.0 0.0 0.00 0.00 0.00 76 1020.4
20260831113127 49 19 0.0 0.0 0.00 0.00 0.00 76 1020.5
20260831112524 49 19 0.0 0.0 0.00 0.00 0.00 76 1020.6
20260831112024 49 20 0.0 0.0 0.00 0.00 0.00 75 1020.6
20260831111620 49 19 0.0 0.0 0.00 0.00 0.00 75 1020.6
20260831111023 49 19 0.0 0.0 0.00 0.00 0.00 76 1020.7
20260831110524 49 19 0.0 0.0 0.00 0.00 0.00 76 1020.7
20260831110113 49 19 0.0 0.0 0.00 0.00 0.00 75 1020.7
20260831105521 49 19 0.0 0.0 0.00 0.00 0.00 75 1020.8
20260831105020 49 19 0.0 0.0 0.00 0.00 0.00 76 1020.7
20260831104604 49 19 0.0 0.0 0.00 0.00 0.00 76 1020.6
20260831104026 49 19 0.0 0.0 0.00 0.00 0.00 76 1020.8
20260831103520 49 19 0.0 0.0 0.00 0.00 0.00 75 1020.8
20260831103111 49 19 0.0 0.0 0.00 0.00 0.00 75 1020.6
20260831102523 49 19 0.0 0.0 0.00 0.00 0.00 75 1020.6
20260831102025 49 19 0.0 0.0 0.00 0.00 0.00 74 1020.7
20260831101607 49 19 0.0 0.0 0.00 0.00 0.00 74 1020.5
20260831101022 49 19 0.0 0.0 0.00 0.00 0.00 74 1020.6
20260831100524 49 19 0.0 0.0 0.00 0.00 0.00 74 1020.5
20260831100117 49 19 0.0 0.0 0.00 0.00 0.00 74 1020.5
20260831095523 49 19 0.0 0.0 0.00 0.00 0.00 75 1020.7
20260831095023 49 19 0.0 0.0 0.00 0.00 0.00 75 1020.6
20260831094614 49 19 0.0 0.0 0.00 0.00 0.00 75 1020.7
20260831094025 49 19 0.0 0.0 0.00 0.00 0.00 75 1020.6
20260831093523 49 19 0.0 0.0 0.00 0.00 0.00 74 1020.8
20260831093125 49 19 0.0 0.0 0.00 0.00 0.00 74 1020.9
20260831092525 49 19 0.0 0.0 0.00 0.00 0.00 74 1020.9
20260831092022 49 19 0.0 0.0 0.00 0.00 0.00 74 1020.9
20260831091608 49 19 0.0 0.0 0.00 0.00 0.00 73 1020.8
20260831091028 49 19 0.0 0.0 0.00 0.00 0.00 72 1020.8
20260831090524 50 19 0.0 0.0 0.00 0.00 0.00 72 1020.8
20260831090039 50 19 0.0 0.0 0.00 0.00 0.00 72 1020.8
20260831085520 50 19 0.0 0.0 0.00 0.00 0.00 72 1020.9
20260831085024 50 19 0.0 0.0 0.00 0.00 0.00 72 1020.8
20260831084539 50 19 0.0 0.0 0.00 0.00 0.00 71 1020.9
20260831084017 50 19 0.0 0.0 0.00 0.00 0.00 72 1020.9
20260831083519 50 19 0.0 0.0 0.00 0.00 0.00 72 1020.9
20260831083037 50 19 0.0 0.0 0.00 0.00 0.00 72 1020.9
20260831082517 50 19 0.0 0.0 0.00 0.00 0.00 71 1021.0
20260831082017 50 19 0.0 0.0 0.00 0.00 0.00 71 1021.0
20260831081538 50 19 0.0 0.0 0.00 0.00 0.00 71 1021.1
20260831081018 50 19 0.0 0.0 0.00 0.00 0.00 71 1021.1
20260831080518 50 19 0.0 0.0 0.00 0.00 0.00 71 1021.1
20260831080100 50 19 0.0 0.0 0.00 0.00 0.00 71 1021.0
20260831075519 50 19 0.0 0.0 0.00 0.00 0.00 71 1021.1
20260831075019 50 19 0.0 0.0 0.00 0.00 0.00 71 1021.1
20260831074545 50 19 0.0 0.0 0.00 0.00 0.00 70 1021.1
20260831074021 50 19 0.0 0.0 0.00 0.00 0.00 70 1021.1
20260831073518 50 19 0.0 0.0 0.00 0.00 0.00 70 1021.1
20260831073058 50 19 0.0 0.0 0.00 0.00 0.00 68 1021.0
20260831072517 50 19 0.0 0.0 0.00 0.00 0.00 68 1021.1
20260831072016 50 19 0.0 0.0 0.00 0.00 0.00 67 1021.2
20260831071547 50 19 0.0 0.0 0.00 0.00 0.00 68 1021.2
20260831071020 50 19 0.0 0.0 0.00 0.00 0.00 68 1021.3
20260831070517 50 19 0.0 0.0 0.00 0.00 0.00 68 1021.3
20260831070046 50 19 0.0 0.0 0.00 0.00 0.00 68 1021.4
20260831065521 50 19 0.0 0.0 0.00 0.00 0.00 67 1021.2
20260831065020 51 19 0.0 0.0 0.00 0.00 0.00 67 1021.2
20260831064547 51 19 0.0 0.0 0.00 0.00 0.00 67 1021.3
20260831064020 51 19 0.0 0.0 0.00 0.00 0.00 67 1021.2
20260831063516 51 19 0.0 0.0 0.00 0.00 0.00 68 1021.3
20260831063047 51 19 0.0 0.0 0.00 0.00 0.00 68 1021.3
20260831062516 51 19 0.0 0.0 0.00 0.00 0.00 68 1021.3
20260831062016 51 19 0.0 0.0 0.00 0.00 0.00 68 1021.3
20260831061546 52 19 0.0 0.0 0.00 0.00 0.00 68 1021.3
20260831061019 52 19 0.0 0.0 0.00 0.00 0.00 68 1021.4
20260831060519 51 19 0.0 0.0 0.00 0.00 0.00 68 1021.4
20260831060053 51 19 0.0 0.0 0.00 0.00 0.00 68 1021.4
20260831055520 51 19 0.0 0.0 0.00 0.00 0.00 68 1021.4
20260831055019 52 19 0.0 0.0 0.00 0.00 0.00 68 1021.3
20260831054551 52 20 0.0 0.0 0.00 0.00 0.00 68 1021.2
20260831054025 52 20 0.0 0.0 0.00 0.00 0.00 68 1021.3
20260831053519 52 20 0.0 0.0 0.00 0.00 0.00 67 1021.4
20260831053053 52 20 0.0 0.0 0.00 0.00 0.00 67 1021.4
20260831052518 52 20 0.0 0.0 0.00 0.00 0.00 67 1021.4
20260831052018 51 20 0.0 0.0 0.00 0.00 0.00 67 1021.4
20260831051546 51 20 0.0 0.0 0.00 0.00 0.00 67 1021.6
20260831051018 52 20 0.0 0.0 0.00 0.00 0.00 65 1021.6
20260831050521 52 20 0.0 0.0 0.00 0.00 0.00 64 1021.6
20260831050052 52 19 0.0 0.0 0.00 0.00 0.00 64 1021.5
20260831045517 52 20 0.0 0.0 0.00 0.00 0.00 64 1021.6
20260831045017 52 20 0.0 0.0 0.00 0.00 0.00 63 1021.6
20260831044555 52 20 0.0 0.0 0.00 0.00 0.00 62 1021.6
20260831044017 52 19 0.0 0.0 0.00 0.00 0.00 63 1021.6
20260831043520 52 20 0.0 0.0 0.00 0.00 0.00 62 1021.5
20260831043050 52 20 0.0 0.0 0.00 0.00 0.00 63 1021.4
20260831042518 52 19 0.0 0.0 0.00 0.00 0.00 64 1021.4
20260831042016 52 20 0.0 0.0 0.00 0.00 0.00 64 1021.4
20260831041554 52 20 0.0 0.0 0.00 0.00 0.00 64 1021.4
20260831041022 52 20 0.0 0.0 0.00 0.00 0.00 63 1021.5
20260831040520 53 20 0.0 0.0 0.00 0.00 0.00 64 1021.5
20260831040049 53 20 0.0 0.0 0.00 0.00 0.00 64 1021.5
20260831035515 53 20 0.0 0.0 0.00 0.00 0.00 65 1021.5
20260831035015 53 20 0.0 0.0 0.00 0.00 0.00 64 1021.5
20260831034549 53 20 0.0 0.0 0.00 0.00 0.00 64 1021.4
20260831034019 53 20 0.0 0.0 0.00 0.00 0.00 64 1021.4
20260831033519 53 20 0.0 0.0 0.00 0.00 0.00 65 1021.3
20260831033056 53 19 0.0 0.0 0.00 0.00 0.00 65 1021.4
20260831032517 53 20 0.0 0.0 0.00 0.00 0.00 65 1021.4
20260831032019 53 20 0.0 0.0 0.00 0.00 0.00 65 1021.4
20260831031548 53 20 0.0 0.0 0.00 0.00 0.00 64 1021.4
20260831031020 53 20 0.0 0.0 0.00 0.00 0.00 63 1021.3
20260831030519 53 20 0.0 0.0 0.00 0.00 0.00 62 1021.3
20260831030100 53 20 0.0 0.0 0.00 0.00 0.00 62 1021.2
20260831025518 53 20 0.0 0.0 0.00 0.00 0.00 60 1021.2
20260831025021 53 20 0.0 0.0 0.00 0.00 0.00 60 1021.1
20260831024555 54 20 0.0 0.0 0.00 0.00 0.00 60 1021.3
20260831024018 54 20 0.0 0.0 0.00 0.00 0.00 60 1021.3
20260831023518 54 20 0.0 0.0 0.00 0.00 0.00 58 1021.4
20260831023050 55 20 0.0 0.0 0.00 0.00 0.00 59 1021.3
20260831022517 55 20 0.0 0.0 0.00 0.00 0.00 58 1021.1
20260831022019 55 20 0.0 0.0 0.00 0.00 0.00 56 1021.1
20260831021551 56 20 0.0 0.0 0.00 0.00 0.00 56 1021.1
20260831021019 56 20 0.0 0.0 0.00 0.00 0.00 55 1021.1
20260831020517 57 20 0.0 0.0 0.00 0.00 0.00 53 1021.2
20260831020047 57 20 0.0 0.0 0.00 0.00 0.00 52 1021.1
20260831015520 57 19 0.0 0.0 0.00 0.00 0.00 54 1021.1
20260831015022 57 19 0.0 0.0 0.00 0.00 0.00 52 1021.1
20260831014546 57 19 0.0 0.0 0.00 0.00 0.00 52 1021.3
20260831014021 58 19 0.0 0.0 0.00 0.00 0.00 52 1021.4
20260831013517 58 19 0.0 0.0 0.00 0.00 0.00 51 1021.3
20260831013050 58 19 0.0 0.0 0.00 0.00 0.00 52 1021.3
20260831012520 58 19 0.0 2.0 0.00 0.00 0.00 52 1021.3
20260831012020 58 24 0.0 2.0 0.00 0.00 0.00 51 1021.2
20260831011552 57 46 0.0 0.0 0.00 0.00 0.00 52 1021.1
20260831011017 57 46 0.0 0.0 0.00 0.00 0.00 52 1021.1
20260831010519 57 46 0.0 0.0 0.00 0.00 0.00 52 1021.1
20260831010103 57 49 0.0 0.0 0.00 0.00 0.00 52 1021.1
20260831005519 57 54 0.0 0.0 0.00 0.00 0.00 52 1021.1
20260831005022 57 65 0.0 0.0 0.00 0.00 0.00 52 1021.2
20260831004544 57 69 0.0 0.0 0.00 0.00 0.00 52 1021.2
20260831004019 57 70 0.0 0.0 0.00 0.00 0.00 52 1021.1
20260831003519 58 70 0.0 0.0 0.00 0.00 0.00 51 1021.1
20260831003102 58 70 0.0 0.0 0.00 0.00 0.00 50 1021.1
20260831002517 58 70 0.0 0.0 0.00 0.00 0.00 50 1021.2
20260831002018 58 70 0.0 0.0 0.00 0.00 0.00 50 1021.1
20260831001555 59 70 0.0 0.0 0.00 0.00 0.00 49 1021.1
20260831001019 59 70 0.0 0.0 0.00 0.00 0.00 49 1021.1
20260831000520 59 70 0.0 0.0 0.00 0.00 0.00 49 1021.3
20260831000055 59 70 0.0 0.0 0.00 0.00 0.00 48 1021.1
20260830235518 59 70 0.0 0.0 0.00 0.00 0.00 47 1021.2
20260830235020 60 70 0.0 0.0 0.00 0.00 0.00 49 1021.3
20260830234551 60 70 0.0 0.0 0.00 0.00 0.00 49 1021.4
20260830234019 60 71 0.0 0.0 0.00 0.00 0.00 49 1021.3
20260830233516 60 71 0.0 0.0 0.00 0.00 0.00 49 1021.4
20260830233046 60 71 0.0 0.0 0.00 0.00 0.00 47 1021.4
20260830232519 60 70 0.0 0.0 0.00 0.00 0.00 48 1021.4
20260830232021 60 71 0.0 0.0 0.00 0.00 0.00 48 1021.5